{"data":{"norad_id":46070,"intl_designator":"2020-055AV","name":"STARLINK-1536","alt_names":[],"object_type":"PAYLOAD","status":"ACTIVE","operator":null,"country":"US","launch_date":"2020-08-07","launch_site_code":"AFETR","launch_vehicle":null,"mission":null,"orbit_class":"UNKNOWN","rcs_meters":null,"size_class":null,"mass_kg":null,"dimensions":null,"purposes":["comms"],"wikipedia_slug":null,"has_3d_model":false,"image_url":null,"decayed_at":null,"tle_current":{"epoch":"2026-05-25T04:22:52.434048Z","epoch_age_seconds":53157,"freshness":"FRESH","line1":"1 46070U 20055AV  26145.18255132  .00000598  00000+0  31032-4 0  9998","line2":"2 46070  53.1598 105.9971 0001082  89.6739 270.4386 15.31701457320958","mean_motion":15.31701457,"eccentricity":0.0001082,"inclination_deg":53.1598,"raan_deg":105.9971,"arg_perigee_deg":89.6739,"mean_anomaly_deg":270.4386,"bstar":3.1032e-5,"rev_number":32095,"period_min":94.013098532947,"perigee_km":469.99460396696,"apogee_km":471.47670000885,"semimajor_km":6848.8726519879,"source":"CELESTRAK","updated_at":"2026-05-25T13:38:16.463671Z"}}}